Warning: Javascript must be enabled to use all the features on this page!


Page Loading - Please Wait...

Click to hideNews Bulletins
Click to hide state-specific text
THREATENED-GAGE-NOTICE FOR MINNESOTA
05137500 - Rainy River at Wheeler's Point, MN will be discontinued Oct. 1, 2018

For more information please click on the "Questions about sites/data" link near the bottom of this page or call 763-783-3100.

See map of locations of threatened gage(s) nationally.


USGS 05289800 MINNEHAHA CREEK AT HIAWATHA AVE. IN MINNEAPOLIS,MN

PROVISIONAL DATA SUBJECT TO REVISION

Click to hidestation-specific text
Minnehaha Creek Watershed District logo

Operated in cooperation with the Minnehaha Creek Watershed District

The precipitation data for this station are temporary and will only be displayed for 120 days. Time-series data or cumulative daily values will NOT be available for retrieval following the 120-day display period. Although the rainfall instrumentation will be calibrated at least annually, the temporary classification means that documented routine inspections and other quality assurance measures may not be performed that would make the data acceptable for archival, retrieval, or future use in general scientific or interpretive studies.

For canoeing the creek, the Minnehaha Creek Watershed District suggests a streamflow rate (also referred to as discharge or flow rate) between 75-150 cubic feet per second, depending on experience. More information is available from their web page here or at the link above.

Click on animated image to see the latest full size current video from site. Click on the Static Image to view the Frame Gallery.

       

Time-lapse video products are considered a proof of concept with no guarantee regarding product up time. Time-lapse videos can be viewed using Chrome, Firefox or Opera browser application on smartphone, tablet, desktop and laptop devices. Additional browser support for Safari and Internet Explorer may be added later.

Any use of trade, firm, or product names is for descriptive purposes only and does not imply endorsement by the U.S. Government.

This station managed by the Mounds View Field Office.

Available Parameters Available Period
All 5 Available Parameters for this site
  
00010 Temperature, water 2010-10-01  2018-11-20
00045 Precipitation 2018-07-23  2018-11-20
00060 Discharge 2006-10-01  2018-11-20
00065 Gage height 2018-07-23  2018-11-20
00095 Specific cond at 25C 2010-10-01  2018-11-20

Graph
Graph w/ stats
Graph w/o stats
Graph w/ (up to 3) parms
Table
Tab-separated
Days  (7)
 

  -- or --
Begin date
 

End date
 

Summary of all available data for this site
Instantaneous-data availability statement
Discharge, cubic feet per second
TIMENov 13Nov 14Nov 15Nov 16Nov 17Nov 18Nov 19Nov 20
00:00 CST102P  87.0P  80.9P  53.1P  42.7P  35.6P  29.3P  27.7P  
00:15 CST101P  87.8P  80.1P  53.1P  42.2P  35.6P  29.3P  27.7P  
00:30 CST101P  87.8P  79.4P  53.1P  42.7P  35.1P  29.3P  27.7P  
00:45 CST101P  87.8P  79.4P  52.5P  42.2P  35.1P  29.3P  27.7P  
01:00 CST101P  88.5P  78.7P  52.5P  42.2P  35.1P  28.9P  27.7P  
01:15 CST100P  88.5P  78.7P  52.5P  42.2P  35.1P  28.9P  27.7P  
01:30 CST100P  89.3P  77.9P  52.5P  42.2P  35.1P  28.9P  27.7P  
01:45 CST100P  89.3P  77.9P  52.5P  42.2P  34.6P  28.9P  27.2P  
02:00 CST99.4P  90.1P  77.2P  51.9P  42.2P  34.6P  28.9P  27.2P  
02:15 CST100P  90.1P  77.2P  51.9P  42.2P  34.6P  28.9P  27.2P  
02:30 CST100P  90.1P  76.4P  51.9P  41.6P  34.6P  28.9P  27.2P  
02:45 CST102P  90.9P  76.4P  51.9P  41.6P  34.6P  28.9P  27.2P  
03:00 CST102P  91.7P  75.7P  51.4P  41.6P  34.6P  28.9P  27.2P  
03:15 CST103P  91.7P  75.0P  51.4P  41.6P  34.1P  28.9P  27.2P  
03:30 CST103P  91.7P  75.0P  51.4P  41.6P  34.1P  28.5P  27.2P  
03:45 CST104P  92.5P  74.3P  51.4P  41.6P  34.1P  28.5P  27.2P  
04:00 CST104P  92.5P  74.3P  51.4P  41.6P  34.1P  28.5P  27.2P  
04:15 CST106P  92.5P  73.5P  51.4P  41.6P  33.7P  28.5P  26.8P  
04:30 CST107P  93.3P  73.5P  50.8P  41.6P  33.7P  28.5P  27.2P  
04:45 CST108P  93.3P  72.8P  50.8P  41.1P  33.2P  28.5P  26.8P  
05:00 CST109P  94.1P  72.8P  50.8P  41.1P  33.2P  28.5P  26.8P  
05:15 CST110P  94.1P  72.1P  50.8P  41.1P  33.2P  28.5P  26.8P  
05:30 CST110P  94.1P  71.4P  50.2P  41.1P  32.7P  28.5P  26.8P  
05:45 CST111P  94.9P  71.4P  50.2P  41.1P  32.7P  28.5P  26.8P  
06:00 CST111P  94.9P  70.7P  50.2P  41.1P  32.7P  28.5P  26.8P  
06:15 CST111P  94.9P  70.7P  50.2P  41.1P  32.3P  28.5P  26.8P  
06:30 CST112P  94.9P  70.0P  49.7P  40.6P  32.3P  28.1P  26.8P  
06:45 CST112P  95.7P  69.3P  49.7P  41.1P  32.3P  28.1P  26.8P  
07:00 CST113P  95.7P  69.3P  49.1P  40.6P  31.8P  28.1P  26.4P  
07:15 CST113P  95.7P  68.6P  49.1P  40.6P  31.8P  28.1P  26.4P  
07:30 CST113P  96.5P  68.6P  49.1P  40.1P  31.8P  28.1P  26.4P  
07:45 CST112P  95.7P  67.9P  49.1P  40.1P  31.4P  28.1P  26.4P  
08:00 CST110P  95.7P  67.9P  48.6P  40.6P  31.4P  28.1P  26.4P  
08:15 CST106P  95.7P  67.2P  48.6P  40.1P  31.0P  28.1P  26.0P  
08:30 CST102P  96.5P  67.2P  48.6P  40.1P  31.0P  28.1P  26.4P  
08:45 CST98.5P  95.7P  66.5P  48.0P  40.1P  31.0P  27.7P  26.0P  
09:00 CST94.9P  95.7P  65.8P  48.6P  40.1P  30.6P  28.1P  26.4P  
09:15 CST93.3P  95.7P  65.8P  48.6P  40.1P  30.6P  27.7P  26.0P  
09:30 CST92.5P  96.5P  65.8P  48.6P  39.6P  30.6P  28.1P  26.0P  
09:45 CST91.7P  95.7P  65.1P  48.6P  40.1P  30.1P  28.1P  26.0P  
10:00 CST91.7P  96.5P  64.4P  48.0P  39.6P  30.1P  28.1P  26.0P  
10:15 CST91.7P  95.7P  64.4P  48.0P  39.6P  30.1P  28.1P  26.0P  
10:30 CST90.9P  96.5P  64.4P  47.5P  39.6P  30.1P  28.1P  26.0P  
10:45 CST90.9P  95.7P  63.8P  47.5P  39.6P  30.1P  27.7P  25.6P  
11:00 CST90.1P  96.5P  63.1P  46.9P  39.6P  29.7P  28.1P  25.6P  
11:15 CST90.1P  96.5P  63.1P  47.5P  39.6P  29.7P  27.7P   
11:30 CST90.1P  96.5P  62.4P  47.5P  39.1P  29.7P  27.7P   
11:45 CST89.3P  96.5P  62.4P  47.5P  39.1P  29.7P  28.1P   
12:00 CST89.3P  96.5P  61.7P  47.5P  39.1P  29.3P  28.1P   
12:15 CST89.3P  96.5P  61.7P  47.5P  39.1P  29.3P  28.1P   
12:30 CST88.5P  90.1P  61.1P  47.5P  39.1P  29.3P  28.1P   
12:45 CST88.5P  90.1P  61.1P  46.9P  39.1P  29.3P  28.1P   
13:00 CST88.5P  90.9P  60.4P  46.9P  39.1P  29.3P  28.5P   
13:15 CST88.5P  90.9P  60.4P  47.5P  39.1P  29.3P  28.1P   
13:30 CST88.5P  90.9P  59.8P  46.4P  38.6P  29.3P  28.5P   
13:45 CST88.5P  91.7P  59.8P  46.9P  39.1P  29.3P  28.1P   
14:00 CST88.5P  91.7P  59.1P  46.9P  38.6P  29.3P  28.1P   
14:15 CST88.5P  91.7P  59.1P  46.4P  38.6P  29.3P  28.1P   
14:30 CST88.5P  92.5P  58.4P  46.4P  38.6P  29.3P  28.1P   
14:45 CST89.3P  92.5P  58.4P  45.9P  38.6P  29.3P  27.7P   
15:00 CST89.3P  92.5P  58.4P  46.4P  38.6P  29.3P  27.7P   
15:15 CST89.3P  92.5P  57.8P  45.9P  38.6P  29.3P  27.7P   
15:30 CST89.3P  92.5P  57.1P  45.9P  38.6P  29.7P  27.7P   
15:45 CST90.1P  93.3P  57.1P  45.9P  38.6P  29.7P  27.7P   
16:00 CST90.1P  92.5P  56.5P  45.3P  38.1P  29.7P  27.7P   
16:15 CST90.9P  92.5P  56.5P  45.3P  38.1P  29.7P  27.7P   
16:30 CST90.9P  93.3P  55.9P  45.3P  38.1P  29.7P  27.7P   
16:45 CST90.9P  92.5P  55.9P  45.3P  38.1P  30.1P  27.7P   
17:00 CST90.9P  92.5P  55.3P  45.3P  37.6P  30.1P  27.7P   
17:15 CST90.9P  92.5P  55.3P  44.8P  37.6P  30.1P  27.7P   
17:30 CST90.9P  92.5P  54.8P  44.8P  37.6P  30.1P  27.7P   
17:45 CST90.9P  91.7P  54.8P  44.8P  37.6P  30.1P  27.7P   
18:00 CST90.9P  91.7P  54.2P  44.8P  37.6P  30.1P  27.7P   
18:15 CST90.1P  90.9P  54.2P  44.8P  37.6P  30.1P  27.7P   
18:30 CST90.1P  90.1P  53.6P  44.8P  37.1P  30.1P  27.7P   
18:45 CST90.1P  90.1P  53.6P  44.3P  37.1P  30.1P  27.7P   
19:00 CST89.3P  89.3P  53.6P  44.3P  37.1P  30.1P  27.7P   
19:15 CST89.3P  89.3P  53.1P  44.3P  37.1P  30.1P  27.7P   
19:30 CST89.3P  88.5P  53.6P  44.3P  37.1P  30.1P  27.7P   
19:45 CST88.5P  87.8P  53.1P  44.3P  36.6P  30.1P  27.7P   
20:00 CST88.5P  87.8P  53.1P  43.7P  36.6P  30.1P  27.7P   
20:15 CST87.8P  87.0P  53.1P  43.7P  36.6P  30.1P  27.7P   
20:30 CST87.8P  86.2P  53.1P  43.7P  36.6P  30.1P  27.7P   
20:45 CST87.8P  85.4P  53.1P  43.7P  36.6P  30.1P  27.7P   
21:00 CST87.8P  85.4P  53.1P  43.7P  36.6P  30.1P  27.7P   
21:10 CST  53.1P       
21:15 CST87.0P  85.4P  53.1P  43.2P  36.6P  29.7P  27.7P   
21:30 CST87.8P  84.7P  53.1P  43.2P  36.1P  29.7P  27.7P   
21:45 CST87.0P  84.7P  53.1P  43.2P  36.1P  29.7P  27.7P   
22:00 CST87.0P  83.9P  53.1P  43.2P  36.1P  29.7P  27.7P   
22:15 CST87.0P  83.9P  53.1P  43.2P  36.1P  29.7P  27.7P   
22:30 CST87.0P  83.2P  53.1P  43.2P  36.1P  29.7P  27.7P   
22:45 CST87.0P  82.4P  53.1P  43.2P  36.1P  29.7P  27.7P   
23:00 CST87.0P  82.4P  53.1P  42.7P  35.6P  29.3P  27.7P   
23:15 CST87.0P  81.6P  53.1P  42.7P  35.6P  29.3P  27.7P   
23:30 CST87.0P  81.6P  53.1P  42.7P  35.6P  29.3P  27.7P   
23:45 CST87.0P  80.9P  53.1P  42.7P  35.6P  29.3P  27.7P   
COUNT9696979696969645
MAX11396.580.953.142.735.629.327.7
MIN87.080.953.142.735.629.327.725.6

Explanation
  P  Provisional data subject to revision.